Location: Sollberg
(42.7389°N, 93.6369°W)
Time: 08:29:54
(UTC+00:00)

Tiangong - Visible Passes

Search period start: 12 October 2024 00:00
Search period end: 22 October 2024 00:00
Orbit: 372 x 377 km, 41.5° (Epoch: 11 October)

Date Brightness Start Highest point End Pass type
(mag) Time Alt. Az. Time Alt. Az. Time Alt. Az.
16 Oct 0.5 11:52:57 10° SSW 11:55:03 17° SSE 11:57:10 10° ESE visible
18 Oct -0.2 11:22:06 10° SSW 11:24:36 24° SSE 11:27:10 10° E visible
19 Oct 0.7 10:21:53 14° SE 10:21:53 14° SE 10:23:02 10° ESE visible
19 Oct -1.4 11:54:22 10° WSW 11:57:21 47° SSE 12:00:21 10° E visible
20 Oct -0.9 10:53:27 31° S 10:53:47 32° SSE 10:56:36 10° E visible
21 Oct -1.9 11:24:51 25° WSW 11:26:25 58° S 11:29:27 10° E visible
